Location: Bergnerzell
(49.1816°N, 10.2565°E)
Time: 12:35:37
(UTC+00:00)

IDEFIX/ARIANE 42P - Pass Details

Date: 14 August 2024
Orbit: 782 x 799 km, 98.5° (Epoch: 15 September)

Event Time Altitude Azimuth Distance (km) Brightness Sun altitude
Rises 00:42:05 0° 18° (NNE) 3,285 7.2 -24.2°
Reaches altitude 10° 00:44:29 10° 24° (NNE) 2,353 6.1 -24.1°
Maximum altitude 00:49:32 50° 100° (E) 997 3.1 -23.8°
Enters shadow 00:50:49 41° 142° (SE) 1,135 3.1 -23.7°
